Home   Weather   Bath   Past weeks

Flag for United Kingdom Past Weather in Bath, England, United Kingdom — Yesterday and Last 2 Weeks

Now
55 °F

Light rain. Partly sunny.


Feels Like: 53 °F
Forecast: 56 / 66 °F
Wind: 10 mph from South

Location: Bristol / Lulsgate

Current Time: Sep 26, 2016 at 11:40:39 AM

Latest Report: Sep 26, 2016 at 11:20 AM


Visibility: N/A

Pressure: 30.12 "Hg

Humidity: 94%

Dew Point: 54 °F

Location of BathLocation

Past Weather in Bath — Graph

°F

Bath Temperature Yesterday

Maximum temperature yesterday: 61 °F (at 12:20 AM)
Minimum temperature yesterday: 52 °F (at 8:20 PM)
Average temperature yesterday: 56 °F

High & Low Weather Summary for the Past Weeks

 TemperatureHumidityPressure
High75 °F (Sep 14, 2:50 PM)100% (Sep 13, 7:20 AM)30.27 "Hg (Sep 13, 7:20 AM)
Low48 °F (Sep 23, 6:50 AM)56% (Sep 11, 3:50 PM)29.74 "Hg (Sep 25, 12:20 AM)
Average59 °F84%30.02 "Hg
* Reported Sep 11 10:20 AM — Sep 26 10:20 AM, Bath, Weather by CustomWeather, © 2016

Note: Actual official high and low records may vary slightly from our data, if they occured in-between our weather recording intervals... More about our weather records

Advertising

Bath Weather History for the Previous 24 Hours

Scroll right to see more
 ConditionsComfort  
Time TempWeatherWind HumidityBarometerVisibility
10:20 AM
Mon, Sep 26
55 °FScattered clouds.9 mph94%30.12 "HgN/A
9:50 AM55 °FLight rain. Scattered clouds.8 mph94%30.12 "HgN/A
9:20 AM55 °FSprinkles. Partly sunny.8 mph88%30.12 "HgN/A
8:50 AM54 °FLight rain. Scattered clouds.8 mph88%30.12 "HgN/A
8:20 AM54 °FLight rain. Partly sunny.7 mph88%30.12 "HgN/A
7:50 AM54 °FCool.7 mph88%30.12 "HgN/A
7:20 AM54 °FPassing clouds.7 mph88%30.12 "HgN/A
6:50 AM54 °FPassing clouds.8 mph88%30.12 "HgN/A
6:20 AM54 °FCool.8 mph88%30.12 "HgN/A
5:50 AM54 °FPassing clouds.7 mph88%30.12 "HgN/A
5:20 AM54 °FPassing clouds.8 mph88%30.12 "HgN/A
4:50 AM54 °FLight rain. Overcast.7 mph88%30.12 "HgN/A
4:20 AM54 °FCool.8 mph88%30.12 "HgN/A
3:50 AM52 °FLight rain. Overcast.9 mph88%30.12 "HgN/A
3:20 AM52 °FCool.6 mph88%30.12 "HgN/A
2:50 AM52 °FCool.8 mph88%30.12 "HgN/A
2:20 AM52 °FCool.7 mph88%30.15 "HgN/A
1:50 AM52 °FPassing clouds.7 mph88%30.15 "HgN/A
1:20 AM52 °FPassing clouds.9 mph88%30.12 "HgN/A
12:50 AM52 °FCool.8 mph82%30.12 "HgN/A
12:20 AM50 °FCool.8 mph88%30.12 "HgN/A
11:50 PM
Sun, Sep 25
52 °FCool.8 mph82%30.12 "HgN/A
11:20 PM52 °FCool.8 mph82%30.12 "HgN/A
10:50 PM52 °FCool.9 mph82%30.12 "HgN/A
10:20 PM52 °FPassing clouds.8 mph82%30.12 "HgN/A
9:50 PM52 °FCool.7 mph82%30.12 "HgN/A
9:20 PM52 °FCool.6 mph82%30.12 "HgN/A
8:50 PM52 °FCool.6 mph82%30.09 "HgN/A
8:20 PM52 °FPassing clouds.6 mph82%30.09 "HgN/A
7:50 PM54 °FCool.7 mph77%30.09 "HgN/A
7:20 PM54 °FPassing clouds.8 mph77%30.09 "HgN/A
6:50 PM55 °FPartly sunny.7 mph72%30.09 "HgN/A
6:20 PM57 °FScattered clouds.9 mph67%30.07 "HgN/A
5:50 PM57 °FScattered clouds.12 mph67%30.07 "HgN/A
5:20 PM59 °FPassing clouds.12 mph68%30.07 "HgN/A
4:50 PM59 °FPassing clouds.14 mph68%30.04 "HgN/A
4:20 PM59 °FScattered clouds.14 mph63%30.04 "HgN/A
3:50 PM59 °FScattered clouds.15 mph63%30.04 "HgN/A
3:20 PM59 °FScattered clouds.17 mph68%30.04 "HgN/A
2:50 PM57 °FMore clouds than sun.14 mph77%30.04 "HgN/A
2:20 PM59 °FPartly sunny.16 mph68%30.01 "HgN/A
1:50 PM59 °FPartly sunny.17 mph72%30.01 "HgN/A
1:20 PM59 °FPassing clouds.14 mph72%29.98 "HgN/A
12:50 PM57 °FScattered clouds.17 mph72%29.98 "HgN/A
12:20 PM57 °FPartly sunny.20 mph72%29.98 "HgN/A
11:50 AM57 °FPartly sunny.17 mph77%29.95 "HgN/A
11:20 AM55 °FLight rain. Partly sunny.18 mph82%29.95 "HgN/A
Weather by CustomWeather, © 2016

See weather overviewHow to use our weather pages